This is the latest recevied weather packets stored in our database for station/object KC3AWA. If no packets are shown the sender has not sent any weather packets the latest 10 day(s).
| Time | Temp. | Humidity | Pressure | Rain* | Wind** | Luminosity | Snow |
|---|---|---|---|---|---|---|---|
| 1778140504 | 2.22° C | 88% | 1013.7 hPa | 0 mm | - | 0 W/m² | - |
| 1778140201 | 2.78° C | 88% | 1014 hPa | 0 mm | - | 0 W/m² | - |
| 1778139898 | 2.78° C | 87% | 1013.7 hPa | 0 mm | - | 0 W/m² | - |
| 1778139596 | 2.78° C | 87% | 1013.7 hPa | 0 mm | - | 0 W/m² | - |
| 1778139292 | 2.78° C | 86% | 1013.7 hPa | 0 mm | - | 0 W/m² | - |
| 1778138988 | 2.78° C | 85% | 1013.8 hPa | 0 mm | - | 0 W/m² | - |
| 1778138686 | 2.78° C | 84% | 1013.8 hPa | 0 mm | - | 0 W/m² | - |
| 1778138383 | 2.78° C | 83% | 1013.6 hPa | 0 mm | - | 0 W/m² | - |
| 1778138080 | 2.78° C | 82% | 1013.8 hPa | 0 mm | - | 0 W/m² | - |
| 1778137777 | 2.78° C | 83% | 1013.8 hPa | 0 mm | - | 0 W/m² | - |
| 1778137474 | 2.78° C | 84% | 1013.7 hPa | 0 mm | - | 0 W/m² | - |
| 1778137171 | 3.33° C | 85% | 1014 hPa | 0 mm | - | 0 W/m² | - |
| 1778136868 | 3.33° C | 83% | 1013.8 hPa | 0 mm | - | 0 W/m² | - |
| 1778136565 | 3.33° C | 81% | 1014 hPa | 0 mm | - | 0 W/m² | - |
| 1778136263 | 3.33° C | 83% | 1014.1 hPa | 0 mm | - | 0 W/m² | - |
| 1778135961 | 3.33° C | 82% | 1014.1 hPa | 0 mm | - | 0 W/m² | - |
| 1778135657 | 3.33° C | 80% | 1014.2 hPa | 0 mm | - | 0 W/m² | - |
| 1778135354 | 3.33° C | 83% | 1014 hPa | 0 mm | - | 0 W/m² | - |
| 1778135051 | 3.33° C | 84% | 1014.2 hPa | 0 mm | - | 0 W/m² | - |
| 1778134749 | 3.89° C | 83% | 1014.1 hPa | 0 mm | - | 0 W/m² | - |
| 1778134447 | 3.89° C | 82% | 1014.1 hPa | 0 mm | - | 0 W/m² | - |
| 1778134145 | 3.89° C | 82% | 1014.2 hPa | 0 mm | - | 0 W/m² | - |
| 1778133841 | 3.89° C | 81% | 1014.3 hPa | 0 mm | - | 0 W/m² | - |
| 1778133538 | 3.89° C | 79% | 1014.1 hPa | 0 mm | - | 0 W/m² | - |
| 1778133233 | 3.89° C | 81% | 1014.2 hPa | 0 mm | - | 0 W/m² | - |
* Rain latest hour (hover to see other rain measurements)
** Current wind speed in m/s (hover to see current wind gust speed)